[[{"header":{"parameterUnit":"m.s-1","parameterCategory":1,"la1":30.2991,"la2":30.254,"lo1":-89.0895,"lo2":-89.0444,"dy":0.0017,"dx":0.0017,"nx":28,"ny":28,"refTime":"2024-04-06T21:00:00:Z","depth":0,"parameterNumber":2,"parameterNumberName":"U-component_of_WINDS"},"data":[0,0,0,0,0,0,0,0,0,0,0,0,0,0,0,0,0,0,0,0,0,0,0,0,0,0,0,0,0,0,0,0,0,0,0,0,0,0,0,0,0,0,0,0,0,0,0,0,0,0,0,0,0,0,0,0,0,0,-4.8536,-4.8536,0,-4.854,-4.854,-4.854,-4.8408,-4.8405,-4.8401,-4.8398,-4.8405,-4.8409,-4.8412,0,0,0,0,0,0,0,0,0,0,0,0,0,-4.8417,-4.842,-4.8536,-4.8536,-4.8536,-4.854,-4.854,-4.854,-4.8409,-4.8405,-4.84,-4.8396,-4.8404,-4.8408,-4.8413,0,0,0,0,0,0,0,0,0,0,0,0,0,-4.845,-4.8421,-4.8536,-4.8471,-4.8465,-4.854,-4.854,-4.854,-4.841,-4.8405,-4.8399,-4.8394,-4.8403,-4.8408,-4.8413,-4.8551,0,0,-4.8429,-4.8431,0,0,0,0,0,0,0,0,-4.8448,-4.8455,-4.848,-4.8475,-4.8469,-4.8468,-4.8501,-4.8544,-4.8411,-4.8431,-4.8398,-4.8392,-4.8431,-4.8433,-4.8446,-4.8551,-4.8552,-4.843,-4.8433,-4.8435,-4.8436,0,0,0,0,0,0,0,-4.8446,-4.8454,-4.8537,-4.8481,-4.8474,-4.8443,-4.8441,-4.8508,-4.8461,-4.8429,-4.8419,-4.8421,-4.8427,-4.8441,-4.8445,-4.8552,-4.8429,-4.8434,-4.8437,-4.8439,-4.8772,-4.8777,0,0,0,0,0,0,-4.8453,-4.8453,-4.8537,-4.8537,-4.8445,-4.8449,-4.8448,-4.8474,-4.8459,-4.8452,-4.8426,-4.8415,-4.8435,-4.8439,-4.8445,-4.8606,-4.8435,-4.844,-4.8443,-4.8766,-4.8773,-4.8779,0,0,0,0,0,0,-4.8451,-4.8461,-4.8537,-4.8492,-4.85,-4.8457,-4.8487,-4.8477,-4.8491,-4.8457,-4.8448,-4.8449,-4.8431,-4.8437,-4.8526,-4.8605,-4.8442,-4.8447,-4.876,-4.8768,-4.8776,-4.893,0,0,0,0,0,0,-4.8448,-4.8461,-4.8513,-4.8495,-4.8503,-4.8617,-4.8492,-4.8481,-4.85,-4.8486,-4.8477,-4.847,-4.8427,-4.8519,-4.8531,-4.8609,-4.8451,-4.8752,-4.8763,-4.8774,-4.8918,-4.8943,-4.8964,0,0,0,0,0,-4.8444,-4.8556,-4.8516,-4.8527,-4.8566,-4.8622,-4.8627,-4.8574,-4.8507,-4.8558,-4.8537,-4.847,-4.8594,-4.8529,-4.8541,-4.8622,-4.8747,-4.876,-4.8773,-4.8907,-4.8938,-4.8964,0,0,0,0,0,0,-4.8585,-4.8553,-4.8508,-4.8617,-4.8623,-4.86,-4.8663,-4.8608,-4.8634,-4.862,-4.8555,-4.8554,-4.8653,-4.8646,-4.8574,-4.8756,-4.8659,-4.8675,-4.8757,-4.8785,-4.8808,-4.8809,-4.8455,0,0,0,0,0,-4.8629,-4.8677,-4.8646,-4.8746,-4.8751,-4.8707,-4.873,-4.8689,-4.8693,-4.8695,-4.868,-4.8688,-4.8728,-4.8756,-4.8791,-4.8916,-4.8913,-4.8978,-4.9001,-4.902,-4.9035,-4.9102,-4.9131,-4.8822,-4.8821,-4.8821,0,0,-4.8721,-4.8708,-4.8743,-4.8774,-4.8774,-4.8826,-4.871,-4.877,-4.8808,-4.8704,-4.8787,-4.8776,-4.878,-4.8888,-4.8934,-4.8885,-4.912,-4.9037,-4.9052,-4.9057,-4.9118,-4.9148,-4.9174,-4.883,-4.8829,-4.8827,0,0,-4.8914,-4.8909,-4.8992,-4.8994,-4.8995,-4.8965,-4.8986,-4.8971,-4.8959,-4.9041,-4.8964,-4.9009,-4.908,-4.9086,-4.9099,-4.9296,-4.9236,-4.9309,-4.9431,-4.9497,-4.9522,-4.9543,-4.9615,-4.9641,-4.9324,-4.9324,-4.9325,0,-4.9028,-4.9102,-4.9042,-4.9107,-4.9124,-4.9031,-4.9115,-4.9121,-4.9134,-4.9148,-4.9092,-4.918,-4.9176,-4.9284,-4.9333,-4.9345,-4.9367,-4.931,-4.9523,-4.9544,-4.9563,-4.963,-4.9657,-4.9333,-4.9332,-4.9331,-4.933,0,-4.9243,-4.9296,-4.9363,-4.9377,-4.9401,-4.9476,-4.9428,-4.946,-4.9417,-4.9393,-4.9478,-4.947,-4.9503,-4.9525,-4.9484,-4.9629,-4.9598,-4.9534,-4.9435,-4.9602,-4.9665,-4.969,-4.9346,-4.9343,-4.934,-4.9338,0,0,-4.9526,-4.9506,-4.9532,-4.9538,-4.9533,-4.9573,-4.9644,-4.9675,-4.9704,-4.9716,-4.9775,-4.9837,-4.9778,-4.9792,-4.9751,-4.9809,-4.9967,-4.9737,-4.9736,-4.9782,-5.0128,-5.0178,-5.0209,-4.9927,-4.9932,-4.9935,-5.0128,0,-4.9715,-4.9834,-4.9782,-4.9907,-4.9956,-4.9869,-4.9931,-4.9935,-4.9915,-4.9955,-4.9932,-4.9978,-4.9895,-4.9904,-4.9957,-4.9937,-5.0036,-4.9922,-4.9983,-4.9986,-4.9986,-5.0241,-5.0293,-5.0476,-5.0152,-5.0156,-5.0159,0,-4.9951,-4.9972,-5.0103,-5.0089,-5.0108,-5.0164,-5.0189,-5.0227,-5.0231,-5.0212,-5.0229,-5.0175,-5.0245,-5.0146,-5.0243,-5.0166,-5.0188,-5.0182,-5.0188,-5.0193,-5.0084,-5.0255,-5.0532,-5.0561,-5.0197,-5.0194,-5.0191,0,-5.0147,-5.0208,-5.0294,-5.0301,-5.0288,-5.033,-5.0326,-5.0324,-5.0347,-5.0369,-5.0383,-5.0413,-5.043,-5.0456,-5.0412,-5.0344,-5.0516,-5.0412,-5.0504,-5.0505,-5.0545,-5.0543,-5.0832,-5.0557,-5.0556,-5.0556,-5.0555,0,-5.0364,-5.0447,-5.0382,-5.0435,-5.0526,-5.0466,-5.0559,-5.0545,-5.0545,-5.0595,-5.0521,-5.057,-5.0508,-5.0551,-5.0517,-5.0604,-5.0611,-5.06,-5.059,-5.0607,-5.0609,-5.0622,-5.0609,-5.0563,-5.0562,-5.056,-5.0559,0,-5.0598,-5.0558,-5.0646,-5.0625,-5.0622,-5.0691,-5.0674,-5.0723,-5.0697,-5.0762,-5.0773,-5.0735,-5.0782,-5.074,-5.0785,-5.0763,-5.0878,-5.0849,-5.0877,-5.0869,-5.0964,-5.0956,-5.1272,-5.1311,-5.101,-5.1012,-5.1015,0,-5.074,-5.0802,-5.0789,-5.0816,-5.0817,-5.0863,-5.0885,-5.0829,-5.0855,-5.0864,-5.0913,-5.0953,-5.0983,-5.1063,-5.104,-5.1074,-5.1047,-5.1155,-5.1052,-5.1068,-5.1051,-5.1048,-5.1055,-5.1177,-5.1181,-5.1183,-5.1186,0,-5.0997,-5.0974,-5.1008,-5.1037,-5.1065,-5.1085,-5.1099,-5.1126,-5.1068,-5.1102,-5.1149,-5.1172,-5.1218,-5.126,-5.1288,-5.1285,-5.1228,-5.1218,-5.1241,-5.1261,-5.1275,-5.127,-5.0936,-5.1212,-5.1209,-5.1207,-5.1206,-5.1205,-5.1191,-5.1242,-5.1241,-5.1282,-5.1286,-5.1301,-5.1347,-5.1327,-5.1365,-5.1397,-5.1362,-5.142,-5.1423,-5.1453,-5.1458,-5.1503,-5.1458,-5.1491,-5.15,-5.1509,-5.1524,-5.1266,-5.1507,-5.1507,-5.1506,-5.1505,-5.1505,0,-5.1445,-5.144,-5.1478,-5.15,-5.1533,-5.1474,-5.1486,-5.1518,-5.157,-5.1576,-5.1607,-5.1662,-5.1703,-5.1682,-5.1718,-5.1758,-5.1733,-5.177,-5.1767,-5.1768,-5.1561,-5.1538,-5.179,-5.179,-5.179,-5.179,-5.179,-5.179,-5.1582,-5.1666,-5.1643,-5.173,-5.1723,-5.1779,-5.1791,-5.1805,-5.1811,-5.1875,-5.1908,-5.1894,-5.1891,-5.1925,-5.1961,-5.1954,-5.1971,-5.2018,-5.2002,-5.181,-5.1782,-5.1755,-5.1734,-5.2022,-5.2022,-5.2205,-5.2207,-5.2208]},{"header":{"parameterUnit":"m.s-1","parameterCategory":1,"la1":30.2991,"la2":30.254,"lo1":-89.0895,"lo2":-89.0444,"dy":0.0017,"dx":0.0017,"nx":28,"ny":28,"refTime":"2024-04-06T21:00:00:Z","depth":0,"parameterNumber":3,"parameterNumberName":"V-component_of_WINDS"},"data":[0,0,0,0,0,0,0,0,0,0,0,0,0,0,0,0,0,0,0,0,0,0,0,0,0,0,0,0,0,0,0,0,0,0,0,0,0,0,0,0,0,0,0,0,0,0,0,0,0,0,0,0,0,0,0,0,0,0,-1.4098,-1.4099,0,-1.4129,-1.4129,-1.4129,-1.4119,-1.4118,-1.4118,-1.4117,-1.4147,-1.4148,-1.415,0,0,0,0,0,0,0,0,0,0,0,0,0,-1.4028,-1.403,-1.4098,-1.4099,-1.4099,-1.4129,-1.4129,-1.413,-1.4119,-1.4118,-1.4118,-1.4117,-1.4146,-1.4148,-1.415,0,0,0,0,0,0,0,0,0,0,0,0,0,-1.4059,-1.403,-1.4098,-1.4097,-1.4098,-1.4129,-1.4129,-1.413,-1.4119,-1.4118,-1.4117,-1.4117,-1.4146,-1.4148,-1.415,-1.4183,0,0,-1.4157,-1.4157,0,0,0,0,0,0,0,0,-1.4057,-1.4061,-1.4097,-1.4098,-1.4098,-1.4119,-1.4115,-1.4148,-1.412,-1.4111,-1.4117,-1.4116,-1.4138,-1.4141,-1.4149,-1.4184,-1.4186,-1.4157,-1.4158,-1.4159,-1.416,0,0,0,0,0,0,0,-1.4055,-1.406,-1.411,-1.4098,-1.4098,-1.4095,-1.4098,-1.4121,-1.413,-1.4112,-1.4111,-1.4115,-1.4138,-1.4147,-1.415,-1.4186,-1.4157,-1.4159,-1.416,-1.4161,-1.4249,-1.425,0,0,0,0,0,0,-1.4053,-1.4058,-1.4109,-1.4111,-1.4075,-1.4097,-1.41,-1.4113,-1.413,-1.4131,-1.4116,-1.4114,-1.4144,-1.4147,-1.4151,-1.419,-1.4159,-1.4161,-1.4162,-1.4248,-1.4249,-1.4251,0,0,0,0,0,0,-1.4052,-1.4058,-1.4108,-1.4085,-1.4091,-1.4099,-1.4114,-1.4114,-1.4123,-1.4133,-1.4134,-1.4123,-1.4143,-1.4148,-1.4175,-1.4191,-1.4162,-1.4164,-1.4247,-1.4248,-1.425,-1.4269,0,0,0,0,0,0,-1.405,-1.4057,-1.407,-1.4085,-1.4092,-1.4133,-1.4115,-1.4116,-1.4127,-1.4125,-1.414,-1.4141,-1.4143,-1.4172,-1.4177,-1.4193,-1.4165,-1.4245,-1.4248,-1.4249,-1.4267,-1.4271,-1.4274,0,0,0,0,0,-1.4047,-1.4074,-1.4071,-1.4077,-1.4109,-1.4134,-1.4138,-1.4139,-1.4128,-1.4141,-1.4147,-1.4141,-1.4188,-1.4175,-1.418,-1.4197,-1.4244,-1.4247,-1.4249,-1.4265,-1.427,-1.4274,0,0,0,0,0,0,-1.4061,-1.4076,-1.4073,-1.4106,-1.4119,-1.4132,-1.4148,-1.4144,-1.416,-1.4158,-1.4158,-1.4162,-1.419,-1.4196,-1.4181,-1.423,-1.4214,-1.4218,-1.4224,-1.4229,-1.4233,-1.4231,-1.4167,0,0,0,0,0,-1.4068,-1.4088,-1.4099,-1.4127,-1.4134,-1.414,-1.4151,-1.4151,-1.4164,-1.4169,-1.4177,-1.4189,-1.4207,-1.4218,-1.4235,-1.4267,-1.427,-1.4282,-1.4285,-1.4288,-1.4292,-1.4308,-1.4314,-1.4259,-1.4258,-1.4258,0,0,-1.4082,-1.4093,-1.4105,-1.413,-1.414,-1.4159,-1.4145,-1.4166,-1.418,-1.4172,-1.4198,-1.4205,-1.4218,-1.4248,-1.4262,-1.4254,-1.4307,-1.4292,-1.4294,-1.4295,-1.4311,-1.4317,-1.4321,-1.426,-1.426,-1.426,0,0,-1.4119,-1.4129,-1.4153,-1.4163,-1.4178,-1.4182,-1.4188,-1.4202,-1.4206,-1.4232,-1.4226,-1.4243,-1.4273,-1.4283,-1.4292,-1.4331,-1.4325,-1.4336,-1.4356,-1.4372,-1.4376,-1.438,-1.4393,-1.4398,-1.4339,-1.4339,-1.4339,0,-1.4135,-1.4164,-1.4166,-1.4187,-1.4198,-1.4192,-1.4216,-1.4225,-1.4245,-1.4252,-1.4244,-1.4281,-1.429,-1.4322,-1.4331,-1.4339,-1.4344,-1.4334,-1.4376,-1.4379,-1.4383,-1.4396,-1.4401,-1.434,-1.434,-1.434,-1.434,0,-1.4183,-1.4203,-1.4221,-1.424,-1.4253,-1.4275,-1.4279,-1.4292,-1.429,-1.4295,-1.4321,-1.4331,-1.435,-1.4357,-1.4356,-1.4389,-1.4383,-1.4375,-1.436,-1.4389,-1.4401,-1.4406,-1.4342,-1.4342,-1.4341,-1.4341,0,0,-1.4229,-1.4249,-1.4255,-1.4263,-1.4279,-1.4295,-1.4317,-1.4335,-1.4345,-1.4359,-1.4376,-1.4402,-1.4394,-1.4404,-1.4404,-1.4418,-1.4448,-1.4409,-1.4409,-1.4415,-1.4483,-1.4489,-1.4495,-1.4444,-1.4445,-1.4446,-1.4482,0,-1.4266,-1.4305,-1.4307,-1.4342,-1.436,-1.4355,-1.4373,-1.4385,-1.4389,-1.4405,-1.4409,-1.4427,-1.4416,-1.4422,-1.4436,-1.4441,-1.4462,-1.4439,-1.446,-1.4461,-1.4457,-1.4501,-1.4508,-1.4541,-1.4487,-1.4488,-1.4488,0,-1.4315,-1.433,-1.4368,-1.438,-1.4388,-1.4405,-1.4421,-1.4437,-1.4449,-1.4451,-1.4462,-1.4459,-1.4481,-1.4465,-1.4494,-1.4478,-1.4487,-1.4491,-1.4492,-1.4494,-1.4476,-1.4504,-1.4552,-1.4557,-1.4496,-1.4495,-1.4495,0,-1.4344,-1.4374,-1.44,-1.4408,-1.4423,-1.4435,-1.4442,-1.4453,-1.4464,-1.4478,-1.4485,-1.4501,-1.451,-1.4522,-1.4523,-1.4512,-1.4552,-1.4537,-1.4554,-1.4554,-1.4563,-1.4562,-1.4613,-1.4569,-1.4569,-1.4569,-1.4569,0,-1.4386,-1.4408,-1.4413,-1.4429,-1.4454,-1.4456,-1.448,-1.4486,-1.4496,-1.4512,-1.4508,-1.4523,-1.4524,-1.454,-1.4541,-1.4564,-1.4568,-1.457,-1.457,-1.457,-1.457,-1.4576,-1.4574,-1.457,-1.457,-1.457,-1.4569,0,-1.4423,-1.4427,-1.4455,-1.4467,-1.4471,-1.4489,-1.4499,-1.4513,-1.4517,-1.4538,-1.4543,-1.4548,-1.4566,-1.4569,-1.459,-1.4591,-1.4619,-1.4616,-1.4615,-1.4614,-1.4631,-1.4629,-1.4687,-1.4694,-1.4646,-1.4647,-1.4647,0,-1.4448,-1.4466,-1.448,-1.4491,-1.4499,-1.4516,-1.4527,-1.4528,-1.4539,-1.4554,-1.4567,-1.4585,-1.4599,-1.4627,-1.4633,-1.4649,-1.4646,-1.4666,-1.4649,-1.4648,-1.4646,-1.4645,-1.4646,-1.4669,-1.4669,-1.467,-1.467,0,-1.4494,-1.4495,-1.4511,-1.4528,-1.4541,-1.4554,-1.4566,-1.4575,-1.4578,-1.4591,-1.4609,-1.462,-1.4641,-1.4658,-1.4674,-1.468,-1.4675,-1.4675,-1.468,-1.468,-1.4678,-1.4679,-1.4623,-1.4674,-1.4673,-1.4673,-1.4673,-1.4673,-1.4526,-1.4541,-1.4553,-1.4571,-1.458,-1.4592,-1.4606,-1.4611,-1.4627,-1.4645,-1.4644,-1.4664,-1.4675,-1.4696,-1.4703,-1.4718,-1.4712,-1.4719,-1.472,-1.4722,-1.4723,-1.4676,-1.4721,-1.4721,-1.4721,-1.472,-1.472,0,-1.457,-1.4578,-1.4594,-1.4611,-1.4625,-1.462,-1.4633,-1.4645,-1.4663,-1.4674,-1.4687,-1.4708,-1.4724,-1.4731,-1.4747,-1.4758,-1.4756,-1.4762,-1.4761,-1.4762,-1.4728,-1.4722,-1.4763,-1.4763,-1.4763,-1.4763,-1.4763,-1.4763,-1.4595,-1.462,-1.4622,-1.4651,-1.4658,-1.4678,-1.4686,-1.4696,-1.4705,-1.4728,-1.4742,-1.4747,-1.4756,-1.4772,-1.4787,-1.4788,-1.4794,-1.4801,-1.4801,-1.4769,-1.4765,-1.4761,-1.4755,-1.4802,-1.4802,-1.4834,-1.4834,-1.4834]}]]